Weather History for KAKO - August, 2013

Change the Weather History Date:

Friday, August 9, 2013

  Actual Average Record
Temperature  
Mean Temperature 67 °F 73 °F  
Max Temperature 81 °F 87 °F 102 °F (1937)
Min Temperature 53 °F 60 °F 45 °F (1939)
Degree Days  
Heating Degree Days 0    
Month to date heating degree days 2  
Cooling Degree Days 2    
Month to date cooling degree days 58  
Growing Degree Days 17 (Base 50)    
Moisture  
Dew Point 50 °F    
Average Humidity 62    
Maximum Humidity 93    
Minimum Humidity 30    
Precipitation  
Precipitation 0.00 in 0.08 in 0.69 in (1966)
Month to date precipitation 0.48 0.80  
Year to date precipitation 9.49 11.99  
Sea Level Pressure  
Sea Level Pressure 30.08 in    
Wind  
Wind Speed 11 mph (South)    
Max Wind Speed 23 mph    
Max Gust Speed 26 mph    
Visibility 10 miles    
Events      
T = Trace of Precipitation, MM = Missing Value Source: NWS Daily Summary

Daily Weather History Graph

Daily Weather History Graph

Search for Another Location

Airport or City:

Trip Planner

Search our weather history database for the weather conditions in past years. The results will help you decide how hot, cold, wet, or windy it might be!

Date:

Astronomy

Aug. 09, 2013 Rise Set
Actual Time 5:58 AM MDT 7:57 PM MDT
Civil Twilight 5:29 AM MDT 8:26 PM MDT
Nautical Twilight 4:52 AM MDT 9:02 PM MDT
Astronomical Twilight 4:13 AM MDT 9:41 PM MDT
Moon 8:47 AM MDT (8/9) 9:07 PM MDT (8/9)
Length of Visible Light 14h 57m
Length of Day
13h 58m
Waxing Crescent, 8% of the Moon is Illuminated
Aug 9
Waxing Crescent
Aug 14
First Quarter
Aug 20
Full
Aug 28
Last Quarter
Sep 5
New

Hourly Weather History & Observations

Time (MDT) Temp. Dew Point Humidity Pressure Visibility Wind Dir Wind Speed Gust Speed Precip Events Conditions
12:53 AM 57.9 °F 54.0 °F 87% 30.07 in 10.0 mi South 9.2 mph - N/A   Clear
1:53 AM 55.9 °F 52.0 °F 87% 30.08 in 10.0 mi SSW 8.1 mph - N/A   Clear
2:53 AM 55.0 °F 52.0 °F 89% 30.07 in 10.0 mi South 8.1 mph - N/A   Clear
3:53 AM 55.9 °F 51.1 °F 84% 30.05 in 10.0 mi SSW 11.5 mph - N/A   Clear
4:53 AM 55.0 °F 51.1 °F 86% 30.06 in 10.0 mi SSW 6.9 mph - N/A   Clear
5:53 AM 54.0 °F 51.1 °F 90% 30.08 in 10.0 mi SSW 12.7 mph - N/A   Clear
6:53 AM 57.0 °F 53.1 °F 87% 30.09 in 10.0 mi SSW 10.4 mph - N/A   Clear
7:53 AM 64.0 °F 55.9 °F 75% 30.09 in 10.0 mi SSW 10.4 mph - N/A   Clear
8:53 AM 68.0 °F 54.0 °F 61% 30.09 in 10.0 mi South 11.5 mph - N/A   Clear
9:53 AM 72.0 °F 51.1 °F 48% 30.09 in 10.0 mi South 11.5 mph - N/A   Clear
10:53 AM 71.1 °F 46.9 °F 42% 30.10 in 10.0 mi SSE 10.4 mph - N/A   Clear
11:53 AM 77.0 °F 45.0 °F 32% 30.09 in 10.0 mi South 10.4 mph 24.2 mph N/A   Clear
12:53 PM 78.1 °F 46.0 °F 32% 30.08 in 10.0 mi South 16.1 mph 26.5 mph N/A   Clear
1:53 PM 78.1 °F 48.0 °F 35% 30.08 in 10.0 mi South 16.1 mph 26.5 mph N/A   Clear
2:53 PM 79.0 °F 46.0 °F 31% 30.06 in 10.0 mi SSE 11.5 mph 24.2 mph N/A   Clear
3:53 PM 80.1 °F 46.0 °F 30% 30.05 in 10.0 mi SSE 13.8 mph 24.2 mph N/A   Scattered Clouds
4:53 PM 79.0 °F 46.9 °F 32% 30.04 in 10.0 mi South 16.1 mph 23.0 mph N/A   Partly Cloudy
5:53 PM 78.1 °F 46.0 °F 32% 30.06 in 10.0 mi South 18.4 mph 25.3 mph N/A   Clear
6:53 PM 73.9 °F 46.9 °F 38% 30.09 in 10.0 mi South 12.7 mph 23.0 mph N/A   Clear
7:53 PM 71.1 °F 48.0 °F 44% 30.09 in 10.0 mi SSE 10.4 mph - N/A   Clear
8:53 PM 69.1 °F 50.0 °F 51% 30.09 in 10.0 mi SSE 15.0 mph 23.0 mph N/A   Clear
9:53 PM 66.0 °F 53.1 °F 63% 30.10 in 10.0 mi SSE 13.8 mph 21.9 mph N/A   Clear
10:53 PM 64.0 °F 55.0 °F 73% 30.12 in 10.0 mi South 11.5 mph 23.0 mph N/A   Mostly Cloudy
11:53 PM 63.0 °F 55.0 °F 75% 30.11 in 10.0 mi South 12.7 mph 24.2 mph N/A   Clear